Location: Richmond
(37.5536°N, 77.4606°W)
Time: 21:35:10
(UTC-05:00)

ISS - Visible Passes

Search period start: 22 February 2017 00:00
Search period end: 04 March 2017 00:00
Orbit: 399 x 408 km, 51.6° (Epoch: 23 February)

Date Brightness Start Highest point End Pass type
(mag) Time Alt. Az. Time Alt. Az. Time Alt. Az.
27 Feb -0.7 06:13:30 10° S 06:16:09 23° SE 06:18:50 10° ENE visible
28 Feb -0.1 05:22:42 10° SSE 05:23:48 11° SE 05:24:55 10° ESE visible
01 Mar -2.8 06:04:03 10° SW 06:07:18 61° SE 06:10:34 10° ENE visible
02 Mar -1.5 05:12:37 14° S 05:14:49 28° SE 05:17:42 10° ENE visible
03 Mar -0.4 04:22:49 14° ESE 04:22:49 14° ESE 04:24:15 10° E visible
03 Mar -3.0 05:55:29 11° WSW 05:58:32 50° NW 06:01:46 10° NE visible
